Location: Clarks Summit,Pa.
(41.5000°N, 75.6000°W)
Time: 01:44:16
(UTC-05:00)

BlueWalker 3 - Pass Details

Date: 03 December 2022
Orbit: 499 x 517 km, 53.2° (Epoch: 07 February)

Event Time Altitude Azimuth Distance (km) Brightness Sun altitude
Rises 17:00:22 0° 293° (WNW) 2,632 6.3 -5.4°
Reaches altitude 10° 17:03:21 10° 317° (NW) 1,740 4.9 -5.9°
Maximum altitude 17:05:43 15° 354° (N) 1,439 4.1 -6.3°
Drops below altitude 10° 17:08:05 10° 31° (NNE) 1,733 4.2 -6.7°
Enters shadow 17:09:06 - 42° (NE) 2,000 4.4 -6.9°
